Terug naar catalogus

BREEZE-M DEB

LostHEO
NORAD 38571·DEBRIS·🇷🇺 Russia

Gelanceerd Mar 14, 2008 vanaf Baikonur Cosmodrome

Loading…

Volgende Passages (komende 24 uur)

TLE

VerouderdSource: Space-Track

Epoch: Jul 10, 2025, 17:02 UTC

1 38571U 08011S   25191.70999019 -.00000062  00000-0  00000-0 0  9995
2 38571  49.6300   0.2981 6204600 241.4273 346.8767  2.98512788144391

Volg BREEZE-M DEB in realtime met AllMySat

Download on the App Store